Satellite-Ground Cal/Val Site Overpasses Predictions

Prediction of Satellite NPP Overpassing Cal/Val Site: Antarctic Dome C

Ground Cal/Val Site Location: Latitude: -75.10, Longitude: 123.35; Satellite-Ground Site NADIR distance within 100 km.

Table of predicted overpasses for the next 14.0 days since TLE Epoch: 1/23/2014
Interval Starting Time Ending Time Minimum Distance Time Minimum Distance (km)
1 01/24/2014 07:21:53 01/24/2014 07:22:11 01/24/2014 07:22:02 78.46
2 01/26/2014 15:04:11 01/26/2014 15:04:34 01/26/2014 15:04:22 64.51
3 01/27/2014 14:45:21 01/27/2014 14:45:47 01/27/2014 14:45:34 44.72
4 01/28/2014 07:47:03 01/28/2014 07:47:25 01/28/2014 07:47:14 66.79
5 01/29/2014 07:28:13 01/29/2014 07:28:40 01/29/2014 07:28:27 41.11
6 02/01/2014 14:51:43 02/01/2014 14:52:12 02/01/2014 14:51:57 9.44
7 02/03/2014 07:34:35 02/03/2014 07:35:04 02/03/2014 07:34:49 4.64


NCC Satellite Cal/Val Overpasses Prediction Service
